Simultaneous Nadir Overpasses (SNOs) Predictions

Prediction of SNOs between AQUA and NOAA-19 Satellite Orbit:

Table of predicted SNOs for the next 14.0 days since TLE Epoch: 6/14/2025
Index Date (AQUA) Time (AQUA) Lat,Lon (AQUA) SZA (AQUA ) Date (NOAA-19) Time (NOAA-19) Lat,Lon (NOAA-19) SZA (NOAA-19 ) Distance(km) Time Diff (sec)
1 06/14/2025 17:53:26 75.75, -82.79 52.44 06/14/2025 17:53:23 75.75, -82.81 52.45 1.23 3
2 06/16/2025 20:00:45 -75.75, 65.42 127.64 06/16/2025 20:00:44 -75.75, 65.38 127.64 1.32 1
3 06/18/2025 22:08:04 75.77,-146.42 52.34 06/18/2025 22:07:52 75.77,-146.28 52.34 3.61 12
4 06/21/2025 00:15:21 -75.77, 1.82 127.68 06/21/2025 00:15:11 -75.78, 1.95 127.67 3.48 10
5 06/21/2025 01:04:48 76.19, 168.17 52.71 06/21/2025 01:05:55 76.19, 170.68 52.78 66.59 67
6 06/23/2025 02:22:38 75.76, 150.11 52.32 06/23/2025 02:22:20 75.77, 150.18 52.34 2.52 18
7 06/23/2025 03:12:06 -76.26, -43.81 127.22 06/23/2025 03:13:12 -76.26, -40.83 127.13 78.73 66
8 06/25/2025 04:29:54 -75.75, -61.64 127.65 06/25/2025 04:29:39 -75.73, -61.73 127.67 3.13 15
9 06/25/2025 05:19:16 75.93, 105.48 52.52 06/25/2025 05:20:27 76.00, 106.46 52.63 27.53 71
10 06/27/2025 06:37:10 75.74, 86.63 52.42 06/27/2025 06:36:48 75.75, 86.57 52.43 2.01 22



Historial Predications of SNOs between AQUA and NOAA-19
